Weather History for MZBZ - February, 2013

Change the Weather History Date:

Wednesday, February 27, 2013

  Actual Average Record
Temperature  
Mean Temperature 80 °F -  
Max Temperature 87 °F 85 °F - ()
Min Temperature 73 °F - - ()
Cooling Degree Days 15    
Growing Degree Days 30 (Base 50)    
Moisture  
Dew Point 74 °F    
Average Humidity 82    
Maximum Humidity 100    
Minimum Humidity 66    
Precipitation  
Precipitation 0.00 in 0.08 in - ()
Sea Level Pressure  
Sea Level Pressure 29.88 in    
Wind  
Wind Speed 4 mph ()    
Max Wind Speed 9 mph    
Max Gust Speed -    
Visibility 7.9 miles    
Events Rain    
T = Trace of Precipitation, MM = Missing Value Source: Averaged Metar Reports

Daily Weather History Graph

Daily Weather History Graph

Search for Another Location

Airport or City:

Trip Planner

Search our weather history database for the weather conditions in past years. The results will help you decide how hot, cold, wet, or windy it might be!

Date:

Astronomy

Feb. 27, 2013 Rise Set
Actual Time 6:12 AM CST 5:59 PM CST
Civil Twilight 5:50 AM CST 6:21 PM CST
Nautical Twilight 5:25 AM CST 6:46 PM CST
Astronomical Twilight 5:00 AM CST 7:11 PM CST
Moon 7:50 PM CST (2/27) 7:12 AM CST (2/27)
Length of Visible Light 12h 30m
Length of Day
11h 46m
Waning Gibbous, 96% of the Moon is Illuminated
Feb 27
Waning Gibbous
Mar 4
Last Quarter
Mar 11
New
Mar 19
First Quarter
Mar 27
Full

Hourly Weather History & Observations

Time (CST) Temp. Heat Index Dew Point Humidity Pressure Visibility Wind Dir Wind Speed Gust Speed Precip Events Conditions
12:00 AM 74 °F - 72 °F 91% 29.87 in 12 mi Calm Calm - -   Scattered Clouds
3:00 AM 73 °F - 72 °F 96% 29.84 in 12 mi WSW 3.5 mph - -   Mostly Cloudy
5:00 AM 75.2 °F - 73.4 °F 94% 29.86 in 6.2 mi West 3.5 mph - N/A   Mostly Cloudy
6:00 AM 74 °F - 73 °F 94% 29.88 in 12 mi West 4.6 mph - - Rain Light Rain
6:00 AM 73.4 °F - 73.4 °F 100% 29.87 in 6.2 mi West 4.6 mph - N/A   Mostly Cloudy
7:00 AM 75.2 °F - 73.4 °F 94% 29.90 in 6.2 mi WNW 5.8 mph - N/A   Mostly Cloudy
7:35 AM 75.2 °F - 73.4 °F 94% 29.91 in 6.2 mi West 3.5 mph - N/A   Mostly Cloudy
8:00 AM 75.2 °F - 73.4 °F 94% 29.92 in 6.2 mi West 4.6 mph - N/A   Mostly Cloudy
9:00 AM 76 °F - 72 °F 86% 29.94 in 9 mi West 5.8 mph - -   Mostly Cloudy
9:00 AM 75.2 °F - 73.4 °F 94% 29.94 in 6.2 mi West 5.8 mph - N/A   Mostly Cloudy
10:00 AM 80.6 °F 85.4 °F 73.4 °F 79% 29.94 in 6.2 mi NW 4.6 mph - N/A   Mostly Cloudy
11:00 AM 80.6 °F 86.2 °F 75.2 °F 84% 29.93 in 6.2 mi West 2.3 mph - N/A   Mostly Cloudy
12:00 PM 84 °F - 75 °F 67% 29.91 in 11 mi ENE 3.5 mph - -   Mostly Cloudy
12:00 PM 84.2 °F 92.3 °F 75.2 °F 74% 29.90 in 6.2 mi ENE 3.5 mph - N/A   Mostly Cloudy
1:00 PM 86.0 °F 95.1 °F 75.2 °F 70% 29.86 in 6.2 mi ENE 6.9 mph - N/A   Scattered Clouds
2:00 PM 86.0 °F 93.4 °F 73.4 °F 66% 29.85 in 6.2 mi ENE 8.1 mph - N/A   Partly Cloudy
3:00 PM 86 °F - 76 °F 66% 29.84 in 11 mi ENE 4.6 mph - -   Scattered Clouds
3:00 PM 86.0 °F 96.9 °F 77.0 °F 74% 29.83 in 6.2 mi ENE 4.6 mph - N/A   Partly Cloudy
4:00 PM 86.0 °F 95.1 °F 75.2 °F 70% 29.84 in 6.2 mi East 9.2 mph - N/A   Partly Cloudy
5:00 PM 86.0 °F 95.1 °F 75.2 °F 70% 29.85 in 6.2 mi East 8.1 mph - N/A   Partly Cloudy
6:00 PM 82 °F - 76 °F 76% 29.87 in 11 mi East 5.8 mph - -   Scattered Clouds
6:00 PM 82.4 °F 89.5 °F 75.2 °F 79% 29.86 in 6.2 mi East 5.8 mph - N/A   Partly Cloudy
9:00 PM 79 °F - 75 °F 85% 29.92 in 11 mi East 5.8 mph - -   Scattered Clouds